FENGYUN 1C DEB, 33636

Orbit data source: Space-Track

FENGYUN 1C DEB, 33636 is space debris in SSO originally from a launch on Mon, 10 May 1999 UTC launched from the Taiyaun Space Center, China (TSC). Fengyun 1C debris stems from the Chinese weather satellite Fengyun-1C, which was intentionally destroyed by a Chinese anti-satellite missile in 2007. This event dramatically increased the amount of space debris, with thousands of trackable fragments posing hazards to satellites and human spaceflight. The Fengyun 1C debris cloud has become a focal point in discussions about space sustainability and the need for international regulations to prevent the creation of new debris.

Loading next visibility...
Identifier
33636, 1999-025DDV
Orbit
SSO
Country
Flag of CNCN / PRC
Related business
Manufacturer
Unknown
Mission
Spacecraft
Bus & Motor
Unknown
Mass
Unknown
Launch date (UTC)
1999-05-10 (27 years ago)
Launch vehicle
Unknown
Launch site
Taiyaun Space Center, China (TSC)
Object type
Payload
Rocket body
Debris
Shape & HBR
Unknown shape, 0.1 m
Radar Cross Section
Small (<0.1 m²)

Expand to show TLE details & history
Last TLE update: 6 months ago

TLE from 6 months ago
0 FENGYUN 1C DEB
1 33636U 99025DDV 25264.81996044  .00002525  00000-0  96776-3 0  9998
2 33636  98.4695 282.6475 0066319 339.2580 201.6926 14.30214321688967
Epoch: 2025-09-21T19:40Z
TLE epoch observation values (Epoch: 2025-09-21T19:40:44.582Z)
Latitude
-0.78589°
Longitude
166.41231°
Altitude
838.286 km
Speed
7.411 km/s
True Right ascension
06h 50m 07s
True Declination
0° 46' 52"
Sunlit
Object was in daylight at epoch
Visualization orbit readout
Latitude
Unknown
Longitude
Unknown
Altitude
Unknown
Speed
Unknown
Apparent Right ascension
Unknown
Apparent Declination
Unknown
Sunlit
N/A
Visualization observer readout
Local Sidereal Time
19:29:01
Azimuth
Unknown
Elevation
Unknown
Doppler factor
Unknown
Orbital elements
Apogee altitude
835.674 km
Perigee altitude
740.622 km
Semi-major axis
7,166.285 km
Eccentricity
0.00663
Inclination
98.4695°
RAAN
282.6475°
Arg. of periapsis
339.258°
True anomaly
201.41385°
Mean anomaly
201.6926°
Eccentric anomaly
201.55301°
Mean motion
3.57768 °/min
Orbital period
100.62 mins
BSTAR
0.00096776
Loading maneuver chart data...
Computing Atmospheric mass density...

Documentation

Showing up to 5 results
|